Beaufort, NC

12:15 PM EDT on March 25, 2017 (GMT -0400)
Smith

Weather History for KMRH - October, 2012

Change the Weather History Date:

Friday, October 19, 2012

  Actual Average Record
Temperature  
Mean Temperature 73 °F -  
Max Temperature 77 °F 75 °F 83 °F (1985)
Min Temperature 69 °F 55 °F 37 °F (1967)
Cooling Degree Days 8    
Growing Degree Days 23 (Base 50)    
Moisture  
Dew Point 69 °F    
Average Humidity 88    
Maximum Humidity 100    
Minimum Humidity 69    
Precipitation  
Precipitation 0.00 in - - ()
Sea Level Pressure  
Sea Level Pressure 29.78 in    
Wind  
Wind Speed 7 mph (SW)    
Max Wind Speed 12 mph    
Max Gust Speed -    
Visibility 10 miles    
Events      
Averages and records for this station are not official NWS values.
T = Trace of Precipitation, MM = Missing Value Source: NWS Daily Summary

Daily Weather History Graph

Daily Weather History Graph

Search for Another Location

Airport or City:

Trip Planner

Search our weather history database for the weather conditions in past years. The results will help you decide how hot, cold, wet, or windy it might be!

Date:

Astronomy

Oct. 19, 2012 Rise Set
Actual Time 7:16 AM EDT 6:26 PM EDT
Civil Twilight 6:50 AM EDT 6:51 PM EDT
Nautical Twilight 6:21 AM EDT 7:21 PM EDT
Astronomical Twilight 5:51 AM EDT 7:50 PM EDT
Moon 11:48 AM EDT (10/19) 10:10 PM EDT (10/19)
Length of Visible Light 12h 01m
Length of Day
11h 10m
Waxing Crescent, 23% of the Moon is Illuminated
Oct 19
Waxing Crescent
Oct 21
First Quarter
Oct 29
Full
Nov 6
Last Quarter
Nov 13
New

Hourly Weather History & Observations

Time (EDT) Temp. Dew Point Humidity Pressure Visibility Wind Dir Wind Speed Gust Speed Precip Events Conditions
12:56 AM 72.0 °F 71.1 °F 97% 29.81 in 9.0 mi SSW 6.9 mph - N/A   Mostly Cloudy
1:56 AM 73.0 °F 71.1 °F 93% 29.80 in 10.0 mi SW 10.4 mph - N/A   Clear
2:56 AM 73.0 °F 71.1 °F 93% 29.79 in 10.0 mi WSW 6.9 mph - N/A   Clear
3:56 AM 72.0 °F 71.1 °F 97% 29.78 in 10.0 mi WSW 5.8 mph - N/A   Scattered Clouds
4:56 AM 70.0 °F 70.0 °F 100% 29.77 in 9.0 mi South 4.6 mph - N/A   Clear
5:56 AM 69.1 °F 69.1 °F 100% 29.77 in 8.0 mi SSW 4.6 mph - N/A   Clear
6:56 AM 71.1 °F 70.0 °F 96% 29.79 in 9.0 mi SSW 5.8 mph - N/A   Clear
7:56 AM 71.1 °F 70.0 °F 96% 29.79 in 7.0 mi SW 4.6 mph - N/A   Clear
8:56 AM 73.9 °F 71.1 °F 91% 29.81 in 8.0 mi SW 8.1 mph - N/A   Clear
9:56 AM 75.0 °F 68.0 °F 79% 29.82 in 10.0 mi West 8.1 mph - N/A   Clear
10:56 AM 75.0 °F 66.9 °F 76% 29.81 in 10.0 mi SW 4.6 mph - N/A   Scattered Clouds
11:56 AM 73.9 °F 66.9 °F 79% 29.80 in 10.0 mi South 5.8 mph - 0.00 in   Overcast
12:56 PM 77.0 °F 69.1 °F 76% 29.79 in 10.0 mi SW 11.5 mph - N/A   Partly Cloudy
1:56 PM 75.9 °F 69.1 °F 79% 29.76 in 10.0 mi South 9.2 mph - N/A   Partly Cloudy
3:56 PM 75.0 °F 64.0 °F 69% 29.74 in 10.0 mi WSW 9.2 mph - N/A   Scattered Clouds
5:56 PM 73.0 °F 68.0 °F 84% 29.74 in 10.0 mi WSW 6.9 mph - N/A   Clear
6:56 PM 71.1 °F 69.1 °F 93% 29.75 in 10.0 mi SW 8.1 mph - N/A   Clear
7:56 PM 71.1 °F 69.1 °F 93% 29.76 in 10.0 mi SW 10.4 mph - N/A   Clear
8:56 PM 71.1 °F 68.0 °F 90% 29.77 in 10.0 mi WSW 9.2 mph - N/A   Clear
10:56 PM 70.0 °F 64.9 °F 84% 29.81 in 10.0 mi SW 9.2 mph - N/A   Clear
11:56 PM 69.1 °F 61.0 °F 75% 29.81 in 10.0 mi West 8.1 mph - N/A   Clear